AQI (13)

Current Conditions for Foresthill, CA. Sunny, Dry   
Visibility: 10 miles
Space WX Alerts: EXTENDED WARNING:  Geomagnetic K-index of 4 expected ( Latest Alert ) - Issue Time: 2020 Jun 02 0558 UTC

  Summary / Temperature 

Current Temperature
67.9°F
19.9°C
(24/hr Ago)
64.1°F
(Apparent temp)
67.3°F
Comfortable
Wind Chill Graphs
67.9°F 

70.9°F/ 21.6°C
 --- Virtual Temp: 70.5°F ---

 Temp Rate:

 24/hr Difference:

 Avg Running Temp:

 Todays High:

 Todays Low:

 Y-days High:

 Y-days Low:

 Todays WChill:

 Y-days WChill:

 Evapotranspiration:

+0.9°F/hr 

+3.8°F

66.5°F

68.6°F 12:00am

65.1°F 5:05am

87.3°F 4:43pm

59.8°F 5:19am

64.1°F 5:43am

57.1°F 4:44am

0.024 in

115' Above Ground

 Temperature:

 6'AGL VRS 115'AGL:

 Avg Running Temp:

 Humidity:

 Todays High:

 Todays Low:

 Y-days High:

 Y-days Low:

74.0°F 

+6.1°F

71.3°F

39% 

74.0°F 8:28am

69.0°F 4:20am

84.0°F 4:19pm

63.0°F 12:00am

Temp & Humidity Graphs

  Wind 

Wind Speed

 8.0 mph

Gusting to

 11.0 mph

Wind from ESE

102°  ESE

Gentle breeze

 Avg speed:

 Wind Run:

 Peak Gust:

  2.0 mph 

37.0 miles

  21.0 mph 12:02am

  Almanac  

Moon age: 12 days,8 hours,57 minutes,94%

Waxing Gibbous
94%
Illuminated
12 days in cycle

 Moonrise:

 Moonset:

 Sunrise:

 Sunset:

 Solar Noon:

6:15pm

4:15am

5:37am

8:24pm

1:02pm

1min 0s more daylight tomorrow 

  Solar Radiation 

(Current Solar)
  492 W/m2 (92%)
(Todays High)
 489 W/m2@8:34am
Feels like: 78.4°F in the sun

Rain

 Rain Today:

 Rain Rate (/hr):

 Rain last hour:

 Rain Yesterday:

 This Month:

 Season Total:

3 Days Since Last Rain Day

0.00 in

0.000 in

0.00 in

0.00 in

0.00 in

36.54 in

Updated Time

Updated: 6/3/20  8:35am

(Updated  sec ago)

Humidity & Barometer

 Humidity:

 Wetbulb:

 Dew Point:

 Barometer:

56% 

58.7°F 

51.6°F 

29.980 inHg 

 Baro Trend:  Steady 
Northern Calif
Preparedness
Fire 
Level 

    UV Index  

(Current UV)
2.1  Low
(Todays High) @ 8:35am
2.1   Low

National Weather Service Forecast

Today

Today: Sunny
Sunny
Tonight

Tonight: Clear
Clear
Thursday

Thursday: Sunny
Sunny
Thursday
Night
Thursday Night: Clear
Clear
Friday

Friday: Sunny
Sunny
Friday
Night
Friday Night: Partly Cloudy then Chance Rain Showers
Partly Cloudy
Hi 91 °F Lo 68 °F Hi 91 °F Lo 66 °F Hi 82 °F Lo 53 °F

Foresthill Probe 2 Stats  
Foresthill Probe 2: is located on Thomas Street
at 3000 feet. The main Foresthill Weather site
is located on Melody ln at the 2860 foot elevation

Calm
72.0°F
22.2°C
Temp Rate:
+2.7°F
2.0 mph
Gusting to
2.0 mph
(Humidity)
48%
Wind from ESE
122°  ESE
Updated: 03/06/20 - 08:36:20
 Todays High: 72.0°F 08:36
 Todays Low: 63.0°F 06:25
 Rain Today: 0.00 in
 Season Total: 36.64 in

Foresthill Wx: Monthly,Yearly, Highs and Lows 

Foresthill  
This Weather Data is coming from the main Foresthill
Weather site located on Melody ln at the 2860 foot
elevation
Not Foresthill Probe 2
Weather Data
Month
  High
Month
  Low
Year
High
Year
Low
Temp 87.3°F
6/2/20
55.0°F
6/1/20
94.3°F
5/28/20
28.3°F
2/3/20
Humidity 93%
6/1/20
31%
6/2/20
100%
1/8/20
12%
2/17/20
Heat Index 86.0°F
6/2/20
60.3°F
6/1/20
92.1°F
5/28/20
28.2°F
2/4/20
Wind Chill 87.3°F
6/2/20
53.7°F
6/1/20
94.3°F
5/28/20
14.7°F
2/3/20
Wind Gust 21 mph
6/3/20
0 mph
6/1/20
46 mph
2/9/20
0 mph
1/1/20
Barometer 30.02 in
6/1/20
29.94 in
6/1/20
30.59 in
1/5/20
29.66 in
3/13/20
ET 0.22 in
6/2/20
0.00 in
6/1/20
0.27 in
5/28/20
0.00 in
1/1/20
Dew Point 58.8°F
6/2/20
45.8°F
6/3/20
66.4°F
5/29/20
-2.6°F
2/3/20
Visible Satellite Pacific Satellite US Radar Satellite Imagery Sacramento,CA.  (click to enlarge)
NWS Weather Forecast - Summary
Updated: Wednesday, June 3, 2020 - 2:51am PDT
NWS Weather Forecast: Today and Tonight (Updated: Wed, 03-Jun-2020 1:49am PDT)
Today

Today: Sunny
Sunny

Hi 91 °F
NWS forecast: Sunny, with a high near 91. Southwest wind 5 to 8 mph.
Tonight

Tonight: Clear
Clear

Lo 68 °F
NWS forecast: Clear, with a low around 68. Southeast wind 2 to 9 mph.
YR.NO 10 Day Weather forecast
Last update: 06/03/2020 @ 01:43
Next update: 06/03/2020 @ 07:46
Provided by: 22
      Temperature Precipitation Pressure Wind  
Today
06/03/2020
06:00 12:00 52°F   29.99 inHg Light breeze from east 5 mph
  12:00 18:00 86°F   29.97 inHg Light breeze from southwest 6 mph
  18:00 00:00 84°F   29.90 inHg Light breeze from west-southwest 4 mph
    (Click to enlarge)
meteogram

    Forecast for next 9 days

      Temperature Precip Pressure Wind  
Thursday
06/04/2020
00:00 06:00 59°F   29.90 inHg Light breeze from east 6 mph
  06:00 12:00 57°F   29.83 inHg Light breeze from east 7 mph
  12:00 18:00 86°F   29.81 inHg Light breeze from southwest 7 mph
  18:00 00:00 84°F   29.71 inHg Light breeze from southwest 6 mph
      Temperature Precip Pressure Wind  
Friday
06/05/2020
00:00 06:00 61°F   29.71 inHg Light breeze from east 6 mph
  06:00 12:00 59°F   29.65 inHg Light breeze from east 6 mph
  11:00 17:00 79°F   29.67 inHg Gentle breeze from south-southwest 8 mph
  17:00 23:00 77°F   29.65 inHg Gentle breeze from south-southwest 9 mph
  23:00 05:00 57°F   29.74 inHg Light breeze from south-southeast 6 mph
      Temperature Precip Pressure Wind  
Saturday
06/06/2020
05:00 11:00 48°F   29.80 inHg Light breeze from south-southeast 7 mph
  11:00 17:00 59°F < 0.01 in 29.85 inHg Gentle breeze from south-southwest 11 mph
  17:00 23:00 59°F 0.07 in 29.86 inHg Moderate breeze from southwest 15 mph
  23:00 05:00 45°F 0.08 in 29.99 inHg Light breeze from southwest 7 mph
      Temperature Precip Pressure Wind  
Sunday
06/07/2020
05:00 11:00 41°F 0.02 in 30.07 inHg Light breeze from south-southeast 4 mph
  11:00 17:00 50°F < 0.01 in 30.10 inHg Light breeze from west-northwest 4 mph
  17:00 23:00 57°F   30.02 inHg Light breeze from west-northwest 7 mph
  23:00 05:00 45°F   30.06 inHg Light breeze from east-northeast 4 mph
      Temperature Precip Pressure Wind  
Monday
06/08/2020
05:00 11:00 37°F   30.08 inHg Gentle breeze from east-northeast 8 mph
  11:00 17:00 63°F   30.10 inHg Light breeze from west-northwest 5 mph
  17:00 23:00 66°F   30.09 inHg Light breeze from west-northwest 7 mph
  23:00 05:00 48°F   30.11 inHg Light breeze from east-northeast 6 mph
      Temperature Precip Pressure Wind  
Tuesday
06/09/2020
05:00 11:00 46°F   30.08 inHg Gentle breeze from east-northeast 8 mph
  11:00 17:00 73°F   30.09 inHg Light breeze from west 4 mph
  17:00 23:00 77°F   30.03 inHg Light breeze from west 5 mph
  23:00 05:00 54°F   30.02 inHg Light breeze from east 5 mph
      Temperature Precip Pressure Wind  
Wednesday
06/10/2020
05:00 11:00 48°F   29.99 inHg Light breeze from east-northeast 6 mph
  11:00 17:00 81°F   29.98 inHg Light breeze from west 6 mph
  17:00 23:00 81°F   29.93 inHg Light breeze from west-southwest 7 mph
  23:00 05:00 64°F   29.97 inHg Light breeze from east-southeast 4 mph
      Temperature Precip Pressure Wind  
Thursday
06/11/2020
05:00 11:00 54°F   29.96 inHg Light breeze from east 6 mph
  11:00 17:00 77°F   29.99 inHg Light breeze from west-southwest 6 mph
  17:00 23:00 79°F   29.97 inHg Gentle breeze from southwest 9 mph
  23:00 05:00 59°F   30.03 inHg Light breeze from east-southeast 5 mph
      Temperature Precip Pressure Wind  
Friday
06/12/2020
05:00 11:00 50°F   29.99 inHg Light breeze from east 6 mph

NOAA Local Storm Report
3 MILES WEST-NORTHWEST OF MILES CITY   ( More )
DATE
05/31/2020
TIME
5:06 PM
COUNTY
CUSTER
STATE
MT
GEOGRAPHIC
46.43N 105.89W
SOURCE
ASOS
THUNDERSTORM WIND GUST MEASURED AT 64.00 MPH

NOAA Local Storm Report
1 MILE EAST OF MILES CITY   ( More )
DATE
05/31/2020
TIME
5:07 PM
COUNTY
CUSTER
STATE
MT
GEOGRAPHIC
46.41N 105.82W
SOURCE
PUBLIC
THUNDERSTORM WIND GUST MEASURED AT 55.00 MPH

NOAA Local Storm Report
1 MILE EAST OF MILES CITY   ( More )
DATE
05/31/2020
TIME
5:07 PM
COUNTY
CUSTER
STATE
MT
GEOGRAPHIC
46.41N 105.82W
SOURCE
PUBLIC
HAIL ESTIMATED AT 0.75 INCH

NOAA Local Storm Report
9 MILES EAST OF MILES CITY   ( More )
DATE
05/31/2020
TIME
5:20 PM
COUNTY
CUSTER
STATE
MT
GEOGRAPHIC
46.42N 105.66W
SOURCE
TRAINED SPOTTER
THUNDERSTORM WIND GUST MEASURED AT 60.00 MPH
hail covered the ground.

NOAA Local Storm Report
9 MILES EAST OF MILES CITY   ( More )
DATE
05/31/2020
TIME
5:20 PM
COUNTY
CUSTER
STATE
MT
GEOGRAPHIC
46.42N 105.66W
SOURCE
TRAINED SPOTTER
HAIL ESTIMATED AT 0.75 INCH
hail covered the ground.

NOAA Local Storm Report
13 MILES EAST OF MILES CITY   ( More )
DATE
05/31/2020
TIME
5:30 PM
COUNTY
CUSTER
STATE
MT
GEOGRAPHIC
46.38N 105.58W
SOURCE
PUBLIC
HAIL ESTIMATED AT 1.00 INCH

NOAA Local Storm Report
9 MILES NORTHWEST OF ALBION   ( More )
DATE
05/31/2020
TIME
6:13 PM
COUNTY
CARTER
STATE
MT
GEOGRAPHIC
45.27N 104.43W
SOURCE
TRAINED SPOTTER
HAIL ESTIMATED AT 0.25 INCH

NOAA Local Storm Report
8 MILES NORTHEAST OF HAMMOND   ( More )
DATE
05/31/2020
TIME
6:20 PM
COUNTY
CARTER
STATE
MT
GEOGRAPHIC
45.31N 104.81W
SOURCE
COCORAHS
HAIL ESTIMATED AT 1.00 INCH

NOAA Local Storm Report
7 MILES WEST OF EKALAKA   ( More )
DATE
05/31/2020
TIME
6:30 PM
COUNTY
CARTER
STATE
MT
GEOGRAPHIC
45.89N 104.70W
SOURCE
TRAINED SPOTTER
HAIL ESTIMATED AT 0.25 INCH

NOAA Local Storm Report
4 MILES WEST OF EKALAKA   ( More )
DATE
05/31/2020
TIME
6:38 PM
COUNTY
CARTER
STATE
MT
GEOGRAPHIC
45.89N 104.63W
SOURCE
TRAINED SPOTTER
HAIL ESTIMATED AT 0.25 INCH

NOAA Local Storm Report
15 MILES SOUTHEAST OF EKALAKA   ( More )
DATE
05/31/2020
TIME
7:20 PM
COUNTY
CARTER
STATE
MT
GEOGRAPHIC
45.74N 104.33W
SOURCE
TRAINED SPOTTER
HAIL ESTIMATED AT 0.25 INCH
How Close Are We To this Month's Temperature Record ?
Updated Wednesday, Jun 3, 2020- 8:35:00 AM

Current Temperature: 67.9°F

June's High: Temperature Record 95.1°F - Set on Sat, Jun 8, 2013 - 3:58:00 PM
We are currently 27.2°F Less than this Month's record High

June's Low: Temperature Record 40.8°F - Set on Tue, Jun 5, 2012 - 5:41:00 AM
We are currently 27.1°F More than this Month's record Low

Weather History For Wednesday, June 3, 2020


On this Day - In Weather History ...
Data courtesy of weatherforyou.com
powered by Cumulus v1.9.3 (1059)
Ambient Weather VWS v14.00
Top Website Map Copyright © 2007 - 2020 Foresthillweather.com Never base important decisions on this or any weather information obtained from the Internet